sat.trackr.live / text

‹ back to catalog

STARLINK-4272

NORAD 52866 · 2022-062AN

PAYLOAD ACTIVE UNKNOWN

§ Identity

Operator
Country
US
Launch date
2022-06-17
Launch site
AFETR
Launch vehicle
Mass (kg)
RCS (m²)

Purposes: comms

External: N2YO · Heavens-Above · Gunter

§ Orbital elements

Epoch: 2026-09-19T22:01:45.530112Z

Period
93.90 min
Inclination
53.1595°
Eccentricity
0.0001098
Mean motion
15.33548389 rev/d
Perigee alt
464.5 km
Apogee alt
466.0 km
Semi-major
6,843.4 km
B*
2.8368e-5
RAAN
220.7379°
Arg perigee
88.0529°
Mean anomaly
272.0599°
Rev number
23,540

§ Raw data

STARLINK-42721 52866U 22062AN  26262.91788808  .00000560  00000+0  28368-4 0  99972 52866  53.1595 220.7379 0001098  88.0529 272.0599 15.33548389235404

JSON: /api/v1/satellites/52866 · /tle

For live sub-satellite position, see the globe view (requires WebGL).

§ Visibility from observer

Set your observer location to see the next 7 days of passes ≥ 10°. The values pass through the URL so the page stays shareable.

No JS? Fill the form by hand. The geolocation button needs JavaScript.